CW1943 Weather Reports


Display with metric or nautical units.
time (UTC)temp
F
wind
direction
speed
MPH
gust
MPH
rain 1hr
in
rain 24hr
in
rain mn
in
humidity
%
barometer
mb
20260507044555 55 155 1.0 4.0 0.00 0.00 0.00 80 1020.7
20260507043049 55 182 0.0 5.0 0.00 0.00 0.00 79 1020.8
20260507041550 56 164 0.0 2.0 0.00 0.00 0.00 78 1020.6
20260507040046 56 165 0.0 2.0 0.00 0.00 0.00 77 1020.7
20260507034608 56 0 0.0 2.0 0.00 0.00 0.00 77 1020.5
20260507033103 56 0 0.0 3.0 0.00 0.00 0.00 77 1020.4
20260507031548 56 0 0.0 4.0 0.00 0.00 0.00 77 1020.4
20260507030047 56 0 0.0 4.0 0.00 0.00 0.00 77 1020.2
20260507024557 56 0 0.0 5.0 0.00 0.00 0.00 76 1020.2
20260507023050 57 156 0.0 2.0 0.00 0.00 0.00 76 1020.1
20260507021604 57 0 0.0 3.0 0.00 0.00 0.00 77 1020.0
20260507020047 57 0 0.0 3.0 0.00 0.00 0.00 76 1020.0
20260507014549 57 302 1.0 4.0 0.00 0.00 0.00 76 1020.1
20260507013058 57 275 1.0 5.0 0.00 0.00 0.00 76 1020.1
20260507011551 57 196 0.0 2.0 0.00 0.00 0.00 76 1020.1
20260507010052 57 268 1.0 4.0 0.00 0.00 0.00 77 1020.2
20260507004549 57 202 1.0 7.0 0.00 0.00 0.00 76 1020.2
20260507003047 57 0 0.0 6.0 0.00 0.00 0.00 76 1020.2
20260507001608 57 221 2.0 7.0 0.00 0.00 0.00 76 1020.2
20260507000048 57 157 3.0 9.0 0.00 0.00 0.00 75 1020.1
20260506234558 56 0 1.0 6.0 0.00 0.00 0.00 75 1020.3
20260506233053 57 266 1.0 5.0 0.00 0.00 0.00 74 1020.2
20260506231554 57 0 2.0 7.0 0.00 0.00 0.00 74 1020.2
20260506230050 57 0 2.0 10.0 0.00 0.00 0.00 73 1020.3
20260506224605 57 210 3.0 9.0 0.00 0.00 0.00 72 1020.4
20260506223049 57 229 1.0 11.0 0.00 0.00 0.00 72 1020.3
20260506221546 58 185 3.0 9.0 0.00 0.00 0.00 70 1020.5
20260506220104 57 176 3.0 11.0 0.00 0.00 0.00 71 1020.5
20260506214551 57 211 4.0 9.0 0.00 0.00 0.00 71 1020.5
20260506213049 57 198 2.0 10.0 0.00 0.00 0.00 71 1020.5
20260506211554 57 222 1.0 9.0 0.00 0.00 0.00 73 1020.7
20260506210047 57 179 2.0 5.0 0.00 0.00 0.00 72 1020.6
20260506204551 57 203 2.0 9.0 0.00 0.00 0.00 73 1020.5
20260506203049 57 190 5.0 10.0 0.00 0.00 0.00 72 1020.6
20260506201551 56 202 1.0 6.0 0.00 0.00 0.00 75 1020.5
20260506200051 56 165 1.0 7.0 0.00 0.00 0.00 77 1020.5
20260506194553 55 180 2.0 8.0 0.00 0.00 0.00 78 1020.4
20260506193053 55 200 0.0 2.0 0.00 0.00 0.00 81 1020.3
20260506191548 55 122 0.0 2.0 0.00 0.00 0.00 82 1020.4
20260506190052 55 167 0.0 4.0 0.00 0.00 0.00 83 1020.2
20260506184551 54 204 1.0 6.0 0.00 0.00 0.00 86 1020.3
20260506183047 53 0 2.0 7.0 0.00 0.00 0.00 87 1020.3
20260506181559 53 0 1.0 5.0 0.00 0.00 0.00 87 1020.3
20260506180048 53 140 2.0 7.0 0.00 0.00 0.00 88 1020.1
20260506174545 53 167 2.0 7.0 0.00 0.00 0.00 89 1019.8
20260506173107 53 166 2.0 6.0 0.00 0.00 0.00 89 1020.0
20260506171553 53 261 2.0 4.0 0.00 0.00 0.00 88 1020.1
20260506170059 54 158 2.0 4.0 0.00 0.00 0.00 85 1020.1
20260506164548 54 281 1.0 5.0 0.00 0.00 0.00 84 1019.9
20260506163054 54 177 0.0 8.0 0.00 0.00 0.00 84 1019.8
20260506161550 54 192 1.0 7.0 0.00 0.00 0.00 84 1019.6
20260506160059 53 170 4.0 9.0 0.00 0.00 0.00 87 1019.3
20260506154548 53 182 1.0 9.0 0.00 0.00 0.00 88 1019.4
20260506153047 53 119 2.0 6.0 0.00 0.00 0.00 88 1019.7
20260506151547 53 157 0.0 6.0 0.00 0.00 0.00 89 1019.7
20260506150050 53 0 2.0 4.0 0.00 0.00 0.00 89 1019.4
20260506144547 53 176 3.0 7.0 0.00 0.00 0.00 88 1019.3
20260506143045 53 181 2.0 6.0 0.00 0.00 0.00 87 1019.5
20260506141545 53 0 1.0 6.0 0.00 0.00 0.00 86 1019.4
20260506140049 53 0 0.0 5.0 0.00 0.00 0.00 86 1019.2
20260506134548 53 174 0.0 4.0 0.00 0.00 0.00 86 1019.3
20260506133045 53 225 0.0 3.0 0.00 0.00 0.00 86 1019.0
20260506131600 53 0 0.0 5.0 0.00 0.00 0.00 85 1019.0
20260506130055 53 201 2.0 7.0 0.00 0.00 0.00 86 1018.6
20260506124552 53 170 2.0 6.0 0.00 0.00 0.00 85 1018.7
20260506123048 53 140 4.0 8.0 0.00 0.00 0.00 85 1018.5
20260506121548 54 185 1.0 5.0 0.00 0.00 0.00 85 1018.3
20260506120049 54 174 2.0 5.0 0.00 0.00 0.00 84 1018.3
20260506114547 54 168 2.0 4.0 0.00 0.00 0.00 84 1018.2
20260506113046 54 175 1.0 5.0 0.00 0.00 0.00 84 1018.0
20260506111552 54 0 0.0 3.0 0.00 0.00 0.00 84 1018.0
20260506110050 54 0 1.0 4.0 0.00 0.00 0.00 84 1017.9
20260506104549 54 0 0.0 2.0 0.00 0.00 0.00 84 1017.8
20260506103047 54 277 1.0 4.0 0.00 0.00 0.00 84 1017.8
20260506101549 54 286 1.0 8.0 0.00 0.00 0.00 84 1017.7
20260506100051 54 211 2.0 8.0 0.00 0.00 0.00 84 1017.5
20260506094619 54 0 0.0 2.0 0.00 0.00 0.00 84 1017.3
20260506093047 54 0 0.0 4.0 0.00 0.00 0.00 84 1017.3
20260506091548 54 246 0.0 2.0 0.00 0.00 0.00 85 1017.2
20260506090044 53 0 1.0 4.0 0.00 0.00 0.00 86 1017.1
20260506084550 54 0 0.0 0.0 0.00 0.00 0.00 85 1016.9
20260506083051 54 0 0.0 3.0 0.00 0.00 0.00 84 1016.7
20260506081546 54 190 1.0 3.0 0.00 0.00 0.00 84 1016.7
20260506073054 54 0 0.0 0.0 0.00 0.00 0.00 85 1016.5
20260506071551 55 0 0.0 2.0 0.00 0.00 0.00 84 1016.5
20260506061545 57 0 0.0 0.0 0.00 0.00 0.00 81 1016.2
20260506060104 57 293 0.0 2.0 0.00 0.00 0.00 82 1016.0